Wink, TX

5:54 PM CST on February 22, 2017 (GMT -0600)
Winkler County

Weather History for KINK - February, 2013

Change the Weather History Date:

Saturday, February 9, 2013

  Actual Average Record
Temperature  
Mean Temperature 64 °F -  
Max Temperature 79 °F 60 °F 90 °F (1957)
Min Temperature 46 °F 29 °F 12 °F (1973)
Growing Degree Days 14 (Base 50)    
Moisture  
Dew Point 26 °F    
Average Humidity 35    
Maximum Humidity 63    
Minimum Humidity 5    
Precipitation  
Precipitation 0.00 in - - ()
Sea Level Pressure  
Sea Level Pressure 29.68 in    
Wind  
Wind Speed 18 mph (SSW)    
Max Wind Speed 32 mph    
Max Gust Speed 44 mph    
Visibility 9 miles    
Events      
Averages and records for this station are not official NWS values.
T = Trace of Precipitation, MM = Missing Value Source: NWS Daily Summary

Daily Weather History Graph

Daily Weather History Graph

Search for Another Location

Airport or City:

Trip Planner

Search our weather history database for the weather conditions in past years. The results will help you decide how hot, cold, wet, or windy it might be!

Date:

Astronomy

Feb. 09, 2013 Rise Set
Actual Time 7:39 AM CST 6:34 PM CST
Civil Twilight 7:14 AM CST 6:59 PM CST
Nautical Twilight 6:45 AM CST 7:28 PM CST
Astronomical Twilight 6:17 AM CST 7:57 PM CST
Moon 6:53 AM CST (2/9) 6:17 PM CST (2/9)
Length of Visible Light 11h 45m
Length of Day
10h 54m
Waning Crescent, 0% of the Moon is Illuminated
Feb 9
Waning Crescent
Feb 10
New
Feb 17
First Quarter
Feb 25
Full
Mar 4
Last Quarter

Hourly Weather History & Observations

Time (CST) Temp. Windchill Dew Point Humidity Pressure Visibility Wind Dir Wind Speed Gust Speed Precip Events Conditions
12:53 AM 52.0 °F - 32.0 °F 47% 29.84 in 10.0 mi SE 15.0 mph 21.9 mph N/A   Clear
1:53 AM 52.0 °F - 33.1 °F 49% 29.83 in 10.0 mi SSE 20.7 mph 29.9 mph N/A   Clear
2:53 AM 51.1 °F - 34.0 °F 52% 29.79 in 10.0 mi SE 15.0 mph 21.9 mph N/A   Clear
3:53 AM 51.1 °F - 36.0 °F 56% 29.75 in 10.0 mi SE 17.3 mph 24.2 mph N/A   Clear
4:53 AM 51.1 °F - 37.9 °F 61% 29.74 in 10.0 mi SE 15.0 mph - N/A   Clear
5:53 AM 51.1 °F - 39.0 °F 63% 29.74 in 10.0 mi SE 15.0 mph - N/A   Clear
6:53 AM 51.1 °F - 39.0 °F 63% 29.74 in 10.0 mi SE 16.1 mph 24.2 mph N/A   Clear
7:53 AM 51.1 °F - 39.0 °F 63% 29.74 in 10.0 mi SE 16.1 mph - N/A   Clear
8:53 AM 52.0 °F - 39.9 °F 63% 29.74 in 10.0 mi SE 19.6 mph 26.5 mph N/A   Clear
9:53 AM 55.0 °F - 39.9 °F 57% 29.72 in 10.0 mi SSE 20.7 mph 27.6 mph N/A   Clear
10:53 AM 59.0 °F - 39.9 °F 49% 29.72 in 10.0 mi SSE 19.6 mph 27.6 mph N/A   Clear
11:53 AM 64.0 °F - 39.9 °F 41% 29.69 in 10.0 mi South 19.6 mph 25.3 mph N/A   Clear
12:53 PM 70.0 °F - 39.9 °F 33% 29.63 in 10.0 mi South 15.0 mph 24.2 mph N/A   Clear
1:53 PM 73.9 °F - 36.0 °F 25% 29.56 in 10.0 mi SSE 17.3 mph 25.3 mph N/A   Clear
2:28 PM 78.8 °F - 17.6 °F 10% 29.63 in 10.0 mi WSW 23.0 mph 40.3 mph N/A   Partly Cloudy
2:53 PM 79.0 °F - 16.0 °F 9% 29.51 in 10.0 mi WSW 32.2 mph 42.6 mph N/A   Clear
3:53 PM 79.0 °F - 12.9 °F 8% 29.49 in 10.0 mi SW 27.6 mph 43.7 mph N/A   Clear
4:53 PM 79.0 °F - 7.0 °F 6% 29.48 in 10.0 mi WSW 18.4 mph 26.5 mph N/A   Clear
5:53 PM 75.9 °F - 1.0 °F 5% 29.49 in 10.0 mi WSW 15.0 mph 23.0 mph N/A   Overcast
6:43 PM 69.8 °F - 6.8 °F 9% 29.62 in 2.5 mi West 29.9 mph 36.8 mph N/A   Haze
6:53 PM 68.0 °F - 12.9 °F 12% 29.54 in 4.0 mi West 25.3 mph 40.3 mph N/A   Haze
7:53 PM 64.0 °F - 17.1 °F 16% 29.61 in 4.0 mi WNW 32.2 mph 42.6 mph N/A   Haze
8:53 PM 57.9 °F - 18.0 °F 21% 29.69 in 10.0 mi WNW 24.2 mph 33.4 mph N/A   Overcast
9:53 PM 53.1 °F - 18.0 °F 25% 29.75 in 10.0 mi NW 17.3 mph - N/A   Overcast
10:53 PM 50.0 °F - 16.0 °F 26% 29.78 in 10.0 mi WNW 15.0 mph - N/A   Clear
11:53 PM 46.0 °F 42.5 °F 16.0 °F 30% 29.80 in 10.0 mi WSW 6.9 mph - N/A   Clear